Location: Boleita
(10.4833°N, 66.8167°W)
Time: 06:15:07
(UTC+00:00)

SAR-Lupe-2 - Pass Details

Date: 03 August 2024
Orbit: 481 x 482 km, 98.1° (Epoch: 05 September)

Event Time Altitude Azimuth Distance (km) Brightness Sun altitude
Exits shadow 23:20:53 - 158° (SSE) 2,539 6.8 -8.0°
Rises 23:20:54 0° 158° (SSE) 2,532 6.8 -8.0°
Reaches altitude 10° 23:23:00 10° 153° (SSE) 1,653 5.8 -8.5°
Maximum altitude 23:26:26 48° 78° (ENE) 636 3.8 -9.3°
Drops below altitude 10° 23:29:52 10° 2° (N) 1,652 6.5 -10.1°
Sets 23:31:57 0° 357° (N) 2,530 7.5 -10.6°
